Date String (YYYY-MM-DD hh:mm:ss) UTC,Instrument flags,Ambient pressure (hPa),Sample flow (lpm),Bypass flow (lpm),Sample temperature (°C),Ambient temperature (°C),ASC tube jacket temperature (°C),LED temperature (°C),Box temperature (°C),Sample RH (%),Span deviation,Mass concentration (μg/m³),Mass concentration (μg/m³),Mass concentration (μg/m³)
DateTimeUTC,F1_M11,P_M11,Q1_M11,Q2_M11,T1_M11,T2_M11,T3_M11,T4_M11,T5_M11,U1_M11,ZSPAN_M11,X0_M11,X2_M11,X1_M11
2022-02-24 08:00:00,,0820.1,4.99,0.00,22.5,22.7,00.0,31.5,24.3,04.9,0000.0,0007.90,0004.80,0004.34
2022-02-24 08:01:00,,0820.1,5.00,0.00,22.6,23.3,00.0,31.5,24.5,04.9,0000.0,0008.41,0004.78,0004.33
2022-02-24 08:02:00,,0820.0,5.01,0.00,22.6,23.1,00.0,31.5,24.5,04.8,0000.0,0008.35,0004.74,0004.31
2022-02-24 08:03:00,,0820.0,4.99,0.00,22.6,22.6,00.0,31.5,24.4,04.9,0000.0,0008.22,0004.67,0004.28
2022-02-24 08:04:00,,0820.0,5.01,0.00,22.6,22.1,00.0,31.5,24.3,04.9,0000.0,0008.22,0004.67,0004.26
2022-02-24 08:05:00,,0819.9,5.00,0.00,22.5,21.8,00.0,31.5,24.2,04.9,0000.0,0008.18,0004.63,0004.23
2022-02-24 08:06:00,,0819.9,4.99,0.00,22.4,21.5,00.0,31.4,24.1,04.9,0000.0,0008.23,0004.62,0004.19
2022-02-24 08:07:00,,0819.9,5.01,0.00,22.4,21.3,00.0,31.4,24.0,04.9,0000.0,0008.27,0004.58,0004.16
2022-02-24 08:08:00,,0819.9,5.00,0.00,22.3,21.2,00.0,31.4,23.9,04.9,0000.0,0008.25,0004.56,0004.14
2022-02-24 08:09:00,,0819.9,5.01,0.00,22.3,21.9,00.0,31.4,24.0,04.9,0000.0,0008.13,0004.52,0004.12
2022-02-24 08:10:00,,0819.9,4.99,0.00,22.5,22.7,00.0,31.5,24.3,04.9,0000.0,0007.89,0004.48,0004.11
2022-02-24 08:11:00,,0819.9,5.00,0.00,22.6,23.1,00.0,31.5,24.5,04.8,0000.0,0007.83,0004.45,0004.10
2022-02-24 08:12:00,,0819.9,5.01,0.00,22.6,22.8,00.0,31.5,24.5,04.8,0000.0,0007.34,0004.49,0004.10
2022-02-24 08:13:00,,0819.9,4.98,0.00,22.6,22.4,00.0,31.5,24.4,04.8,0000.0,0007.26,0004.49,0004.12
2022-02-24 08:14:00,,0819.9,5.01,0.00,22.6,22.0,00.0,31.5,24.2,04.8,0000.0,0007.41,0004.53,0004.14
2022-02-24 08:15:00,,0819.9,5.01,0.00,22.5,21.7,00.0,31.5,24.1,04.9,0000.0,0007.39,0004.52,0004.15
2022-02-24 08:16:00,,0819.9,5.00,0.00,22.4,21.5,00.0,31.4,24.1,04.9,0000.0,0007.45,0004.56,0004.19
2022-02-24 08:17:00,,0819.9,5.00,0.00,22.4,21.3,00.0,31.4,24.0,04.9,0000.0,0007.45,0004.57,0004.21
2022-02-24 08:18:00,,0819.9,5.00,0.00,22.3,21.4,00.0,31.4,24.0,04.9,0000.0,0007.40,0004.58,0004.23
2022-02-24 08:19:00,,0819.9,5.01,0.00,22.4,22.2,00.0,31.4,24.1,04.9,0000.0,0007.40,0004.59,0004.25
2022-02-24 08:20:00,,0819.9,5.00,0.00,22.5,23.0,00.0,31.5,24.4,04.8,0000.0,0007.51,0004.63,0004.26
2022-02-24 08:21:00,,0819.8,5.00,0.00,22.7,23.4,00.0,31.5,24.6,04.8,0000.0,0007.73,0004.67,0004.28
2022-02-24 08:22:00,,0819.9,4.99,0.00,22.7,23.1,00.0,31.5,24.6,04.8,0000.0,0007.84,0004.71,0004.30
2022-02-24 08:23:00,,0819.9,5.01,0.00,22.7,22.7,00.0,31.5,24.5,04.8,0000.5,0007.78,0004.71,0004.32
2022-02-24 08:24:00,,0819.8,5.00,0.00,22.6,22.3,00.0,31.5,24.4,04.8,0000.5,0008.01,0004.72,0004.33
2022-02-24 08:25:00,,0819.8,5.00,0.00,22.6,22.0,00.0,31.5,24.3,04.8,0003.5,0008.19,0004.71,0004.34
2022-02-24 08:26:00,,0819.7,4.99,0.00,22.5,21.7,00.0,31.5,24.2,04.8,0000.4,0008.29,0004.73,0004.35
2022-02-24 08:27:00,,0819.7,4.99,0.00,22.5,21.5,00.0,31.5,24.1,04.8,0000.0,0008.38,0004.78,0004.38
2022-02-24 08:28:00,,0819.7,5.00,0.00,22.4,21.4,00.0,31.4,24.0,04.9,0000.0,0008.59,0004.87,0004.44
2022-02-24 08:29:00,,0819.7,5.01,0.00,22.3,21.2,00.0,31.4,23.9,04.9,0000.0,0008.65,0004.96,0004.51
2022-02-24 08:30:00,,0819.7,4.99,0.00,22.3,21.6,00.0,31.4,24.0,04.9,0002.0,0008.73,0005.03,0004.57
2022-02-24 08:31:00,,0819.8,5.01,0.00,22.4,22.4,00.0,31.5,24.2,04.9,0003.1,0008.80,0005.13,0004.64
2022-02-24 08:32:00,,0819.8,5.00,0.00,22.6,23.1,00.0,31.5,24.4,04.8,0001.9,0008.69,0005.19,0004.70
2022-02-24 08:33:00,,0819.9,5.00,0.00,22.7,23.3,00.0,31.5,24.6,04.8,0001.2,0008.51,0005.23,0004.76
2022-02-24 08:34:00,,0819.9,5.01,0.00,22.7,22.9,00.0,31.5,24.6,04.8,0001.7,0008.63,0005.33,0004.83
2022-02-24 08:35:00,,0819.9,4.99,0.00,22.7,22.5,00.0,31.5,24.5,04.8,0001.3,0008.48,0005.41,0004.90
2022-02-24 08:36:00,,0819.9,5.00,0.00,22.6,22.1,00.0,31.5,24.4,04.8,0001.5,0008.35,0005.51,0004.99
2022-02-24 08:37:00,,0819.9,5.00,0.00,22.6,21.9,00.0,31.5,24.3,04.8,0001.6,0008.35,0005.60,0005.07
2022-02-24 08:38:00,,0819.9,4.99,0.00,22.5,21.6,00.0,31.5,24.2,04.8,0001.4,0008.40,0005.66,0005.12
2022-02-24 08:39:00,,0819.9,5.01,0.00,22.5,21.4,00.0,31.5,24.1,04.8,0001.6,0008.23,0005.66,0005.17
2022-02-24 08:40:00,,0819.9,5.00,0.00,22.4,21.3,00.0,31.4,24.0,04.8,0001.2,0008.51,0005.67,0005.21
2022-02-24 08:41:00,,0819.9,5.00,0.00,22.4,21.5,00.0,31.4,24.0,04.8,0000.7,0008.55,0005.69,0005.23
2022-02-24 08:42:00,,0819.9,5.00,0.00,22.5,22.3,00.0,31.5,24.2,04.8,0000.7,0008.63,0005.71,0005.26
2022-02-24 08:43:00,,0819.9,4.99,0.00,22.6,23.0,00.0,31.5,24.4,04.8,0001.9,0008.75,0005.76,0005.30
2022-02-24 08:44:00,,0819.9,4.99,0.00,22.7,23.0,00.0,31.5,24.6,04.8,0002.0,0008.73,0005.77,0005.32
2022-02-24 08:45:00,,0819.9,5.01,0.00,22.7,22.7,00.0,31.5,24.5,04.8,0001.5,0009.22,0005.78,0005.35
2022-02-24 08:46:00,,0819.9,5.01,0.00,22.6,22.3,00.0,31.5,24.4,04.8,0001.1,0009.46,0005.82,0005.37
2022-02-24 08:47:00,,0819.9,5.00,0.00,22.6,22.0,00.0,31.5,24.3,04.8,0000.9,0009.46,0005.83,0005.38
2022-02-24 08:48:00,,0819.9,5.00,0.00,22.5,21.7,00.0,31.5,24.1,04.8,0000.8,0009.49,0005.85,0005.38
2022-02-24 08:49:00,,0819.9,5.00,0.00,22.4,21.4,00.0,31.5,24.1,04.8,0000.0,0009.44,0005.84,0005.40
2022-02-24 08:50:00,,0819.9,5.01,0.00,22.4,21.5,00.0,31.4,24.0,04.8,0000.0,0009.46,0005.86,0005.40
2022-02-24 08:51:00,,0820.0,5.02,0.00,22.5,22.3,00.0,31.5,24.2,04.8,0000.0,0009.28,0005.91,0005.42
2022-02-24 08:52:00,,0820.2,5.00,0.00,22.6,23.0,00.0,31.5,24.4,04.8,0000.0,0009.24,0005.91,0005.43
2022-02-24 08:53:00,,0820.2,5.01,0.00,22.7,23.1,00.0,31.5,24.6,04.7,0000.0,0009.14,0005.88,0005.41
2022-02-24 08:54:00,,0820.2,4.99,0.00,22.7,22.7,00.0,31.5,24.5,04.7,0000.0,0009.10,0005.87,0005.41
2022-02-24 08:55:00,,0820.1,5.00,0.00,22.7,22.3,00.0,31.5,24.4,04.7,0000.0,0009.41,0005.88,0005.40
2022-02-24 08:56:00,,0820.1,5.01,0.00,22.6,22.0,00.0,31.5,24.3,04.8,0000.0,0008.86,0005.85,0005.39
2022-02-24 08:57:00,,0820.2,5.01,0.00,22.5,21.7,00.0,31.5,24.2,04.8,0000.0,0009.15,0005.84,0005.39
2022-02-24 08:58:00,,0820.2,4.99,0.00,22.5,21.5,00.0,31.5,24.1,04.8,0000.0,0009.26,0005.85,0005.39
2022-02-24 08:59:00,,0820.2,5.01,0.00,22.4,21.4,00.0,31.5,24.1,04.8,0000.0,0009.19,0005.83,0005.39
